User: anonymous   Login
Location: Caltech
(34.1382°N, 118.1253°W)
Time: 05:35:13
(UTC-07:00)
Language:

Cosmos 2084 - Orbit

View from above orbital plane
View from above orbital plane
View from above satellite
View from above satellite

Ground track
Ground track

The orbit data is extracted from the following two-line orbital elements,

1 20663U 90055A   17087.91081404 +.00000250 +00000-0 +38620-4 0  9996
2 20663 062.7914 136.0516 0140004 082.1262 279.5696 14.91510940447823
Epoch (UTC): 28 March 2017 21:51:34
Eccentricity: 0.0140004
inclination: 62.7914°
perigee height: 495 km
apogee height: 691 km
right ascension of ascending node: 136.0516°
argument of perigee: 82.1262°
revolutions per day: 14.91510940
mean anomaly at epoch: 279.5696°
orbit number at epoch: 44782

The dashed part of the orbit path shows where the satellite is in the earth's shadow,  

DLR